Wind_Speed
75 75 75 75 76 76 77 77 77 78 78 79 79 80 81 82 83 84 84 85 86 88 89 89 90 91 91 92 93 93 94 94 95 96 96 97 98 99 100 100 100 101 101 101 101 101 101 100 100 99 98 97 97 96 96 96 96 96 96 96 96 97 99 99 98 97 99 102 102 95 94 97 99 99 98 100 101 101 100 100 100 100 98 95 93 95 98 99
74 75 75 76 76 76 76 77 78 78 78 79 79 79 80 81 82 83 84 85 86 87 88 89 89 90 91 92 93 93 94 94 95 95 96 96 97 97 98 98 98 98 97 96 96 95 94 94 93 93 92 91 91 91 91 91 91 91 91 91 92 94 95 94 93 94 95 97 97 93 93 95 96 96 95 97 98 99 98 97 98 97 94 90 90 92 94 95
72 74 75 75 76 76 76 77 77 78 78 79 79 79 79 80 80 81 82 83 84 85 86 87 87 88 89 90 90 91 91 92 92 92 92 92 92 92 92 92 92 91 90 90 89 89 89 88 88 88 88 88 87 87 87 87 88 88 88 88 90 91 91 90 91 92 92 93 93 91 92 93 94 93 92 93 94 95 95 95 94 94 89 84 85 89 90 92
70 71 73 74 75 76 76 76 77 77 78 78 78 78 79 79 79 80 80 81 81 82 83 83 84 84 85 85 86 86 86 86 86 86 86 86 86 86 86 86 86 86 86 85 86 86 86 86 86 86 86 86 86 86 85 85 85 85 85 87 88 88 87 88 88 88 89 89 90 90 91 91 91 90 89 90 90 91 92 92 91 89 85 79 80 86 89 92
67 69 70 72 73 74 75 75 76 76 76 76 77 77 77 78 78 79 79 80 80 81 81 81 81 82 82 82 82 82 82 82 82 82 82 82 82 83 83 83 84 84 84 84 84 84 85 85 85 85 85 84 84 84 82 83 84 84 84 85 85 85 85 85 85 85 86 87 88 88 89 88 88 88 86 86 87 87 88 89 88 85 82 79 81 85 88 91
63 65 67 69 70 72 72 73 74 74 74 75 75 75 76 76 76 77 77 78 79 79 80 80 80 80 80 80 80 80 80 80 80 80 81 81 81 81 82 82 82 82 82 82 82 83 83 83 83 83 83 82 81 81 81 82 83 82 83 83 82 83 83 83 83 83 84 85 85 85 86 86 86 85 84 84 84 83 84 86 86 81 76 75 79 83 86 89
59 61 63 65 67 68 69 70 71 72 72 73 73 73 74 74 75 75 75 76 76 76 77 77 77 77 77 78 78 77 77 77 77 77 78 78 78 78 79 79 79 79 78 78 78 79 79 79 78 78 79 78 78 79 79 80 81 80 80 80 80 80 80 80 80 81 82 82 82 82 84 84 83 83 82 83 82 80 82 83 81 76 73 75 77 78 82 87
56 57 59 61 62 64 65 66 67 68 69 70 71 71 72 72 73 73 73 73 74 74 74 74 74 74 75 74 74 74 73 73 73 73 73 74 74 74 74 74 74 74 74 74 74 74 73 73 73 73 73 73 74 75 75 76 76 75 76 75 76 76 76 76 77 78 78 78 78 80 80 80 80 80 80 82 79 78 79 79 76 72 70 72 73 74 79 84
52 53 55 56 58 59 61 62 63 64 65 66 67 68 68 69 70 70 70 71 71 71 71 71 71 72 72 71 71 70 70 69 69 69 69 69 69 69 69 69 69 69 69 69 69 69 68 68 68 68 67 68 69 69 70 70 70 70 71 71 71 71 71 72 73 74 74 75 76 77 77 77 77 78 79 78 75 75 77 75 73 69 67 70 72 75 80 83
49 50 51 52 53 54 55 56 57 59 60 61 62 63 64 64 65 65 66 66 67 67 67 67 68 68 67 66 66 65 65 64 63 63 63 63 63 63 62 63 63 63 63 63 63 63 63 63 63 64 64 64 65 65 66 66 66 67 67 67 68 68 68 69 70 71 71 72 73 74 74 74 76 77 77 75 74 75 75 73 71 67 66 69 70 74 78 81
49 49 49 50 50 51 51 52 53 55 56 57 57 58 59 59 60 60 60 61 61 61 61 62 62 61 61 60 59 59 59 58 57 57 56 57 57 57 57 57 58 58 59 59 60 60 60 60 61 61 61 62 63 63 63 63 63 64 64 64 64 64 64 65 66 66 66 67 69 70 71 72 73 74 74 74 74 75 73 71 70 68 65 64 64 68 71 77
48 49 49 50 50 50 50 50 51 52 52 53 53 54 54 54 54 55 55 55 55 55 55 55 55 55 55 54 54 54 54 53 53 53 53 53 54 54 55 55 56 56 57 57 58 58 58 58 59 59 59 59 59 58 59 58 58 58 58 58 57 58 58 58 59 59 60 61 62 64 65 67 69 69 70 71 72 71 70 69 69 66 62 59 60 65 70 77
47 48 48 49 49 49 49 49 50 50 50 50 50 50 50 50 50 50 50 51 51 51 51 51 51 51 51 51 51 51 51 51 51 51 52 52 53 54 54 55 55 55 55 55 55 55 55 56 55 55 55 54 54 53 53 52 52 51 51 51 51 52 51 51 52 53 54 54 55 58 59 62 63 63 65 66 66 66 65 65 64 58 54 57 61 68 73 76
47 47 47 48 47 47 47 48 48 48 48 48 48 48 47 47 47 47 48 48 48 48 49 49 49 49 50 50 50 50 50 50 51 51 51 52 53 53 53 54 54 53 53 53 52 52 52 52 51 51 50 49 48 47 47 46 46 45 46 46 46 47 46 45 47 48 48 48 50 52 54 57 58 56 58 59 59 60 59 59 58 54 53 58 62 65 71 71
48 48 48 47 47 47 47 47 47 47 47 47 47 46 46 46 46 46 47 47 48 48 48 49 49 49 49 50 50 50 51 51 51 51 51 51 51 51 51 51 51 50 50 49 49 48 48 48 47 46 45 44 43 42 42 42 42 42 42 42 42 43 41 39 43 43 43 43 45 49 49 53 54 50 51 52 52 54 53 53 53 51 53 57 57 58 61 64
49 49 49 48 48 47 47 47 47 47 47 46 46 46 46 46 46 46 47 47 48 48 48 49 49 49 49 50 50 50 50 50 50 50 49 49 49 49 48 48 47 47 46 46 45 45 44 44 43 43 42 41 40 40 40 39 39 39 40 39 39 41 37 36 40 39 38 39 42 45 44 50 50 44 45 47 46 47 47 48 48 46 48 48 47 47 50 54
51 51 50 49 48 48 47 47 47 47 47 46 46 46 46 46 46 47 47 47 48 48 49 49 50 49 49 50 49 49 49 48 48 48 47 47 47 46 46 45 45 44 43 43 42 42 42 41 41 40 40 40 39 39 39 38 39 39 38 38 39 40 36 35 38 36 35 37 39 40 41 46 46 39 41 42 41 43 43 42 43 43 43 41 39 40 43 48
52 52 51 51 50 49 48 48 48 48 47 47 47 47 47 47 47 47 47 47 48 48 48 49 49 48 48 48 48 48 48 47 47 46 45 45 44 44 44 44 43 43 42 42 41 41 40 40 40 40 40 39 39 39 39 39 39 39 38 38 39 39 37 36 35 34 35 37 36 37 40 44 43 38 39 39 38 40 40 40 40 40 41 39 38 37 40 44
52 52 52 51 51 50 50 50 50 49 48 48 48 48 48 48 48 48 48 47 47 48 47 48 47 47 47 47 46 46 46 45 45 44 44 43 43 43 43 43 43 43 42 42 41 41 41 41 41 41 40 40 41 41 41 41 40 40 39 39 40 40 40 38 34 35 37 37 36 37 40 42 42 40 39 38 39 39 39 40 39 39 40 39 38 37 37 39
51 51 51 51 51 51 50 50 50 50 50 49 49 49 48 48 48 47 47 47 46 46 46 46 46 45 45 45 45 45 44 44 43 43 43 43 43 43 43 43 43 43 43 42 42 42 42 43 42 41 41 42 42 42 42 43 42 42 41 41 42 42 43 41 37 37 38 38 38 37 40 42 42 42 40 39 41 41 40 41 40 39 40 40 39 38 37 38
48 49 49 50 50 50 50 50 50 50 49 49 48 48 48 47 47 46 46 45 45 45 44 44 44 44 44 44 44 44 43 43 43 43 43 43 43 43 44 44 44 44 44 43 43 43 44 44 42 41 43 43 43 43 43 43 43 43 43 43 43 44 46 44 40 40 40 41 41 39 41 43 43 43 43 42 42 42 42 42 42 41 41 41 41 39 37 35
45 46 47 47 48 48 48 48 48 48 48 48 47 47 46 46 45 45 44 43 44 43 43 43 43 42 42 42 43 43 43 43 43 43 43 43 43 43 44 44 44 45 45 45 44 44 45 43 41 43 44 43 43 43 43 44 44 44 44 44 45 46 47 47 44 41 41 44 43 41 43 44 44 45 45 45 44 44 44 43 43 43 43 43 43 41 38 36
42 43 44 45 45 46 46 46 46 46 46 46 45 44 44 44 43 43 43 42 42 42 42 42 41 41 41 41 43 43 43 43 43 43 43 43 43 44 44 44 45 45 46 46 45 45 44 40 41 43 43 42 43 43 43 44 44 44 45 45 46 47 48 49 46 42 43 45 44 43 45 45 46 47 46 46 47 47 46 45 45 44 45 45 44 42 41 40
40 41 42 42 43 43 43 43 43 43 44 44 43 43 43 42 42 42 42 41 41 41 41 41 40 40 40 41 42 42 43 43 43 43 43 43 43 43 44 44 45 46 45 45 45 46 43 40 42 43 42 42 43 43 43 43 43 43 44 45 46 47 48 48 46 44 45 46 45 45 46 47 48 47 47 48 49 49 47 47 46 46 46 46 45 44 44 43
39 40 40 40 41 41 41 41 41 42 43 42 41 42 42 42 42 42 42 42 41 41 40 40 39 40 40 40 41 42 42 42 42 42 42 42 42 42 42 43 44 44 43 44 45 44 41 40 42 42 42 42 42 42 42 42 41 42 43 44 44 45 45 46 44 44 46 46 46 47 47 49 49 48 49 50 49 50 49 48 48 47 48 48 47 46 46 45
38 40 40 40 40 40 40 40 42 42 41 41 41 42 42 41 42 42 42 43 42 40 40 40 39 40 40 40 41 42 42 41 41 40 41 41 40 40 40 41 42 41 40 42 43 41 39 40 41 40 41 42 41 41 41 41 40 40 42 42 41 42 42 43 43 43 45 45 46 46 46 47 48 48 51 50 50 51 50 50 49 49 49 50 49 48 48 47
38 39 40 40 40 40 40 41 42 41 41 41 42 43 42 42 42 42 43 43 41 40 41 40 40 40 39 40 41 41 41 41 40 39 39 39 38 39 39 39 40 39 39 41 42 40 39 39 40 40 40 41 41 40 40 41 39 39 41 41 40 40 40 40 41 41 43 44 43 44 44 44 45 49 50 49 50 51 50 50 50 50 50 50 50 50 50 48
39 40 40 41 41 41 41 42 42 42 42 43 44 43 43 43 43 43 44 44 42 42 42 41 41 40 40 40 41 41 41 41 40 39 39 39 38 39 39 38 39 39 40 42 42 41 40 39 40 40 41 41 41 40 41 41 40 39 41 41 40 40 40 39 40 41 43 43 41 41 42 42 43 47 49 47 48 49 48 48 49 50 49 49 49 50 50 49
41 41 41 42 42 43 43 43 43 43 43 44 44 44 44 44 43 44 45 44 43 44 43 42 42 41 41 41 41 42 42 42 41 40 39 40 39 40 39 39 40 40 41 43 43 43 42 41 41 41 42 42 41 42 42 41 41 41 41 41 42 42 41 41 40 41 43 41 39 40 42 41 41 45 47 46 45 47 46 45 47 48 47 47 47 48 50 50
43 43 43 43 43 44 44 44 44 44 45 45 46 46 46 45 45 46 46 45 45 46 44 43 43 43 43 43 42 43 44 43 42 42 41 41 41 41 41 41 42 42 43 44 45 45 44 42 42 42 43 43 43 43 44 43 43 43 42 42 43 44 44 43 42 43 43 41 40 41 43 42 42 44 46 46 45 46 46 44 44 45 45 44 46 47 48 49
45 45 44 44 45 45 45 45 46 46 46 46 47 48 48 48 47 48 48 47 48 48 46 45 45 44 44 44 45 46 45 45 45 44 44 44 44 44 44 44 45 45 45 47 48 47 45 44 43 43 44 44 44 45 45 45 46 45 44 44 46 47 46 45 45 45 44 43 43 45 45 43 43 45 48 48 47 47 47 45 44 44 44 43 44 45 46 47
49 48 47 46 46 46 46 46 47 47 47 48 48 49 50 50 50 50 50 50 50 50 49 48 47 46 46 46 48 48 47 47 47 46 46 47 47 48 47 47 48 47 48 50 50 48 46 46 46 45 46 45 45 46 46 47 49 48 46 47 49 50 49 47 47 47 47 48 48 48 47 45 45 48 50 50 51 49 48 48 47 46 45 45 45 45 45 46
50 51 51 50 49 49 48 48 48 48 48 49 49 50 51 51 51 52 53 53 53 53 52 50 49 49 48 48 50 50 48 49 50 48 48 49 50 51 50 50 50 50 51 52 52 50 49 50 49 48 48 48 48 47 47 49 50 48 48 50 51 53 52 48 48 50 51 52 51 49 48 48 49 50 51 52 54 53 51 51 50 49 48 48 48 48 48 48
50 51 52 53 53 52 52 51 51 50 50 51 51 52 52 52 53 53 54 55 55 55 54 52 51 51 51 51 53 52 50 51 52 51 51 51 52 54 54 52 52 52 52 53 53 52 52 53 52 51 50 49 49 49 49 51 51 49 49 52 53 55 55 51 51 52 53 54 53 50 49 51 51 52 52 54 56 56 56 55 54 53 52 51 51 51 52 51
49 51 52 53 53 54 55 55 55 54 54 54 54 54 54 54 54 55 56 57 57 57 55 54 53 52 53 55 55 54 53 54 54 53 53 54 55 56 56 55 54 53 52 53 54 54 55 55 54 53 52 51 51 51 51 52 52 51 51 52 54 56 56 55 53 54 55 55 55 52 51 52 54 55 55 56 57 58 58 58 57 55 54 54 54 54 54 54
43 47 50 52 53 54 55 56 57 57 57 57 57 57 57 57 57 57 58 58 59 58 56 56 55 55 56 58 57 56 55 55 56 55 55 55 56 57 57 56 55 54 53 54 55 55 56 57 55 55 54 53 53 52 52 53 52 52 52 53 55 57 57 56 54 55 55 55 55 55 54 54 56 58 58 59 59 60 60 60 59 58 56 56 56 56 56 57
36 39 43 46 50 52 54 55 57 57 58 59 59 59 60 60 60 60 60 60 60 60 59 58 58 58 58 59 60 58 57 57 57 57 57 58 58 58 58 57 56 55 54 55 55 56 57 58 57 55 54 54 54 52 52 52 52 52 52 53 55 57 57 56 54 55 55 55 54 56 55 55 58 60 59 59 60 60 61 61 60 59 58 57 58 58 58 58
33 34 36 39 43 46 48 52 55 57 58 58 59 60 61 61 62 62 62 63 63 62 62 61 61 62 61 61 62 61 59 60 59 58 59 60 59 59 59 58 57 56 56 56 57 56 56 57 57 55 53 53 52 50 49 49 50 51 51 53 55 56 55 55 54 53 54 54 53 55 56 55 58 60 59 59 61 60 61 62 61 59 59 58 59 60 60 60
33 33 33 35 38 39 41 44 47 51 53 56 58 60 60 61 62 63 64 64 64 63 63 63 63 63 63 63 64 63 62 62 61 59 61 62 61 61 61 59 57 57 57 57 57 56 56 55 54 53 52 51 50 49 47 47 48 50 50 52 53 54 54 53 53 53 53 53 53 55 56 55 57 59 58 58 61 62 62 62 61 60 59 60 61 61 62 62
34 34 33 35 36 36 38 39 40 43 45 48 52 56 57 60 62 63 63 63 64 64 64 63 62 63 64 63 63 63 63 63 61 59 61 62 61 61 61 58 57 57 57 57 56 55 55 54 53 53 52 51 51 49 47 48 49 50 50 50 52 53 53 53 53 54 53 52 54 55 54 55 57 56 57 59 60 60 62 62 61 60 59 60 61 61 62 62
35 34 34 37 37 35 36 37 37 39 40 42 46 47 49 53 57 59 60 61 63 63 63 63 63 63 63 63 62 63 62 62 62 60 60 61 61 60 58 57 57 56 56 57 56 54 54 53 53 53 52 51 53 50 49 50 50 50 50 50 51 53 53 53 53 54 53 53 55 55 53 55 56 55 58 60 59 60 62 62 61 60 59 59 60 60 60 61
36 34 35 39 38 36 36 36 35 37 39 41 42 41 42 45 48 50 54 57 58 60 61 61 62 63 62 62 63 63 63 61 62 61 60 62 62 59 57 57 57 56 56 57 56 53 54 55 54 54 53 53 54 52 51 53 52 51 51 51 53 53 53 53 53 54 55 54 55 55 54 55 54 55 59 59 59 59 60 60 59 58 58 59 58 58 57 57
38 36 37 39 39 38 38 37 36 38 39 38 39 39 40 41 41 43 46 49 52 54 56 58 59 59 60 61 61 62 62 62 62 61 61 63 62 59 58 59 58 57 57 58 56 54 55 57 55 55 54 54 55 53 52 54 55 54 52 53 54 53 54 55 55 56 56 55 56 56 56 55 55 56 58 58 58 58 58 58 57 57 57 58 57 56 55 55
40 39 39 40 40 40 40 39 38 40 40 38 39 39 39 39 40 40 42 43 45 47 50 53 54 55 57 57 58 59 60 59 60 60 61 64 62 58 59 60 59 60 59 58 58 56 57 58 57 55 55 55 56 55 54 56 58 56 54 55 55 54 56 57 56 57 56 55 58 58 56 57 57 56 57 57 57 57 56 57 56 56 56 56 55 55 54 53
43 42 41 41 42 41 41 41 41 42 41 41 42 39 38 39 40 40 41 41 41 42 44 46 47 49 53 53 53 56 56 56 57 58 58 61 59 57 59 60 60 60 59 59 61 59 58 60 58 56 56 56 56 57 57 59 60 58 56 56 56 56 58 58 58 58 56 55 58 57 55 58 59 57 57 57 57 56 55 54 55 54 54 53 53 53 53 53
44 44 44 44 44 43 43 43 44 44 42 43 44 40 40 41 40 40 41 40 40 41 42 42 42 44 47 48 48 52 53 53 54 54 54 57 57 53 54 58 59 58 57 59 60 59 58 60 59 57 57 57 58 59 59 61 61 59 57 58 58 57 58 59 58 58 58 58 58 56 56 59 61 59 57 56 58 57 55 54 54 54 52 51 52 52 53 53
45 45 46 47 47 45 45 45 46 46 44 45 45 42 43 43 41 41 42 39 39 42 42 41 41 42 44 44 44 46 48 48 49 51 51 53 54 50 51 56 55 53 55 56 57 57 58 58 58 58 58 58 59 60 60 62 62 60 59 59 60 59 58 59 59 58 59 59 56 56 59 59 59 59 58 57 58 56 55 55 55 54 53 52 53 54 53 54
48 47 47 48 48 48 47 48 48 47 47 47 46 45 46 45 43 43 44 42 42 43 42 41 41 42 43 43 43 44 45 45 44 46 47 48 50 47 48 53 53 50 53 54 53 54 56 55 56 58 58 58 59 60 61 62 63 61 60 60 61 60 59 59 59 59 61 60 57 58 60 58 57 59 61 61 59 56 56 57 56 56 55 53 54 55 55 55
51 50 50 50 49 49 49 51 51 50 49 49 48 47 48 47 45 45 45 46 44 44 44 43 43 43 43 44 44 43 44 44 43 45 45 46 47 45 45 49 50 48 50 51 50 52 54 54 54 55 57 56 57 59 60 62 64 62 60 59 60 60 59 59 58 59 63 62 59 59 59 57 57 60 63 63 61 58 58 59 59 58 57 55 55 56 57 58
53 53 52 52 51 50 51 52 53 53 52 51 50 50 50 50 48 47 48 48 47 46 46 46 45 45 45 45 45 43 43 44 44 45 46 47 48 46 45 47 47 47 47 49 50 50 51 52 52 54 54 53 55 58 60 62 63 60 57 58 59 60 60 60 59 60 63 63 61 60 58 55 58 62 63 61 61 61 61 61 62 62 60 57 57 58 59 59
54 54 54 53 53 52 52 52 54 54 54 53 53 53 52 52 51 50 50 50 49 48 49 49 47 47 49 48 45 44 46 46 46 46 46 47 48 47 47 47 48 47 47 49 50 50 51 51 51 53 52 50 53 57 58 59 59 55 54 55 59 60 60 60 61 61 62 62 62 62 58 56 59 62 62 60 60 61 63 64 63 63 63 61 60 60 61 61
54 54 54 55 54 54 54 54 55 55 54 54 55 55 55 54 53 53 53 52 52 51 51 52 51 51 52 50 46 47 50 50 48 48 48 49 49 49 48 48 48 48 49 49 50 50 52 52 51 53 52 50 53 57 57 55 52 51 52 55 58 58 58 60 62 62 63 63 62 60 58 58 60 59 59 61 62 61 64 66 65 66 66 65 63 64 65 64
Wind_Direction
246 246 246 246 246 246 246 246 246 246 246 246 246 247 247 247 247 248 248 248 248 249 249 249 249 250 250 251 251 251 252 253 253 254 254 255 256 256 257 258 258 259 260 260 261 261 262 262 262 262 263 263 263 263 263 263 263 263 263 262 262 262 262 262 263 263 263 264 265 265 264 264 264 264 265 265 266 266 266 267 267 267 267 268 269 269 269 269
247 247 247 247 247 247 247 247 247 247 247 247 247 248 248 248 248 249 249 249 250 250 250 250 251 251 251 252 252 252 253 254 254 255 256 257 257 258 259 260 260 260 261 261 262 262 262 262 262 263 263 263 263 263 262 262 262 262 262 262 261 261 261 262 262 262 262 263 264 263 263 263 263 263 264 264 265 266 266 266 266 267 268 268 269 268 268 267
248 248 248 248 248 248 248 248 248 248 248 248 248 249 249 249 249 250 250 251 251 251 252 252 252 253 253 253 254 254 255 255 256 257 257 258 259 259 260 261 261 261 262 262 262 262 262 263 263 263 263 263 263 263 263 262 262 262 261 261 260 261 262 261 261 261 262 262 263 262 262 262 262 263 263 263 264 265 265 265 266 267 268 268 267 267 267 267
248 248 248 249 249 249 249 249 249 249 249 250 250 250 250 251 251 251 252 252 252 253 253 253 254 254 255 255 255 256 256 257 257 258 258 259 260 260 261 261 262 262 262 262 263 263 263 264 264 264 264 264 264 263 263 263 262 262 262 261 261 261 262 261 261 261 262 262 262 262 262 262 263 263 262 263 264 264 265 265 265 266 267 266 266 267 268 269
249 249 249 249 249 250 250 250 250 251 251 251 251 251 252 252 252 253 253 253 254 254 255 255 255 256 256 256 257 257 257 258 258 259 259 260 260 261 261 262 262 263 263 263 264 264 264 264 264 264 264 264 264 264 264 264 263 263 262 262 262 262 262 262 262 262 262 262 262 262 263 263 263 262 262 262 262 263 264 265 265 265 266 265 266 267 267 267
250 250 250 250 250 250 250 251 251 251 252 252 252 253 253 253 253 254 254 255 255 256 256 256 257 257 258 258 258 258 259 259 259 260 260 260 261 261 262 262 263 263 263 264 264 264 264 264 264 265 265 265 265 265 265 264 264 264 264 264 264 264 263 263 263 263 262 262 263 263 263 262 262 262 262 261 261 262 263 264 265 265 265 264 263 263 263 265
250 250 250 250 250 251 251 251 251 252 252 253 253 254 254 254 255 255 256 256 256 257 257 258 258 258 259 259 259 259 260 260 260 261 261 261 261 262 262 262 263 263 263 264 264 264 264 264 265 265 265 265 265 265 265 265 265 265 265 265 265 264 264 264 263 263 263 263 263 262 262 262 262 262 261 261 261 261 261 263 264 265 265 263 261 262 263 265
251 251 251 251 251 251 251 252 252 252 253 253 254 254 254 255 255 256 257 257 258 258 258 259 259 259 259 260 260 260 261 261 261 261 261 262 262 262 262 262 262 263 263 263 264 264 265 265 265 265 266 266 266 266 266 266 266 266 266 265 265 265 264 264 264 263 263 263 263 262 262 262 262 262 261 261 261 262 262 262 263 263 263 262 261 262 262 264
251 251 251 252 252 252 252 252 253 253 253 254 254 254 255 255 256 257 257 258 258 259 259 260 260 260 260 261 261 261 261 261 261 262 262 262 262 262 262 262 262 262 262 263 263 264 265 265 265 266 266 266 266 266 266 267 267 267 266 266 266 266 265 265 264 264 264 264 264 263 263 263 263 262 262 262 262 261 261 261 262 261 260 260 261 262 263 263
251 252 252 252 252 252 253 253 253 254 254 254 255 255 255 256 256 257 258 258 259 259 260 260 260 261 261 261 261 261 261 261 261 261 261 261 261 261 261 261 261 261 262 262 263 264 264 265 266 266 266 267 267 267 268 268 268 268 268 268 267 267 266 266 265 265 265 264 264 263 263 263 262 261 261 262 261 260 260 261 260 259 258 260 262 262 262 263
251 251 252 252 252 253 253 254 254 254 254 255 255 256 256 256 257 257 258 258 259 259 259 259 260 260 260 260 260 260 260 260 260 259 259 259 260 260 260 260 261 261 262 263 263 264 265 266 266 267 267 268 268 269 269 269 269 269 269 268 268 267 267 266 266 265 265 264 264 263 262 262 261 261 261 261 259 259 260 260 259 258 258 258 259 259 260 262
250 251 251 252 253 253 254 254 255 255 255 255 256 256 256 257 257 257 257 257 258 258 258 258 258 258 259 259 259 258 259 258 258 258 259 259 260 260 260 261 261 262 263 263 264 265 266 266 267 268 268 268 269 269 269 270 270 270 269 269 268 267 266 266 266 265 265 264 263 263 262 261 261 261 260 260 260 260 260 259 259 259 259 257 256 258 261 263
250 251 251 252 253 253 254 254 255 255 255 256 256 256 256 256 256 256 257 256 257 257 257 257 257 257 258 258 258 258 258 258 258 259 259 260 261 261 261 262 262 263 263 264 265 266 266 267 267 268 268 269 269 269 269 270 269 269 268 268 267 266 266 266 265 265 264 264 263 263 262 261 260 261 261 261 261 261 260 259 258 257 255 254 254 257 260 263
250 250 251 251 252 252 253 254 254 255 255 255 256 256 256 256 256 256 256 256 256 256 256 257 257 257 257 258 258 259 259 259 260 260 260 261 261 261 262 262 263 263 264 264 265 266 266 266 267 267 267 268 268 269 269 269 268 268 267 267 266 265 265 265 264 263 263 263 263 263 262 262 261 261 262 262 262 261 260 259 258 254 251 252 254 257 260 263
250 250 251 251 252 252 252 253 254 254 255 255 255 255 255 255 255 255 255 256 256 256 257 257 258 258 258 259 260 260 260 260 260 260 260 261 261 261 261 262 262 263 263 264 264 265 265 266 266 266 267 267 267 268 268 267 268 267 266 267 266 265 264 264 263 262 264 264 263 263 264 264 263 262 263 264 263 263 261 260 258 254 253 255 256 259 263 264
250 250 251 251 251 252 252 253 253 254 254 255 255 255 255 255 255 255 255 256 257 257 257 258 259 259 260 260 261 261 261 261 260 260 260 260 260 260 260 261 261 262 263 263 263 263 264 264 265 266 267 267 268 267 267 267 267 267 267 267 266 266 264 263 264 264 264 264 263 264 265 266 266 265 265 264 264 263 262 260 258 255 253 255 256 258 261 263
250 251 251 251 251 251 252 252 253 253 254 254 254 255 255 255 255 255 256 256 257 258 259 259 260 260 261 261 261 261 260 260 260 259 259 258 258 258 259 259 260 260 261 261 262 262 262 263 264 266 267 268 268 268 268 268 267 267 268 268 268 268 266 263 265 266 264 262 264 266 266 267 268 268 267 266 265 264 263 260 258 256 252 251 251 250 252 258
250 251 251 251 251 252 252 252 253 253 254 254 254 255 255 255 256 256 257 257 258 259 260 260 261 261 260 260 260 260 259 259 258 258 257 257 257 257 257 258 258 259 259 260 260 261 261 262 264 265 266 267 268 268 268 267 268 268 268 269 269 270 269 265 266 267 265 264 265 267 266 269 272 271 268 268 267 266 265 262 260 258 255 252 249 245 247 255
250 251 251 251 252 252 252 252 253 254 254 254 255 255 255 256 257 257 258 258 259 260 260 260 260 260 259 259 258 258 258 257 257 256 255 255 255 255 255 256 257 258 259 259 260 260 261 262 263 264 265 266 266 266 267 267 267 267 267 268 268 269 269 267 266 266 265 266 266 266 267 270 273 272 271 271 269 268 267 266 263 262 260 257 252 247 247 252
250 250 251 251 251 252 252 252 253 254 254 255 255 256 256 257 257 258 258 259 259 259 259 259 259 258 258 257 256 255 255 255 254 254 253 253 254 254 255 256 257 258 259 259 260 260 261 261 262 264 265 265 265 265 266 266 266 267 266 266 267 268 267 267 266 265 265 266 265 265 266 268 270 271 272 270 269 269 269 269 268 266 265 262 258 253 251 254
250 250 250 251 251 251 252 252 253 254 254 255 255 256 257 257 257 257 258 258 258 257 257 257 257 256 256 255 254 253 253 253 253 253 253 254 254 255 255 256 257 258 259 259 259 259 260 260 262 263 263 263 264 264 264 265 265 265 266 266 267 266 266 268 267 265 266 265 265 265 265 266 267 269 270 268 268 269 270 270 271 270 268 267 265 261 258 257
249 249 249 250 250 251 251 252 252 253 254 254 255 255 256 256 256 256 256 256 256 256 256 255 254 254 254 254 253 253 252 252 252 252 252 253 254 255 255 256 257 258 259 259 259 259 259 260 262 262 262 263 263 264 264 264 264 264 264 264 264 264 265 266 265 265 264 263 264 265 263 264 265 266 267 268 269 269 269 269 270 271 270 269 268 267 264 259
248 248 249 249 249 250 250 250 251 252 252 253 253 253 254 254 254 254 254 254 254 254 253 253 253 252 252 252 253 253 252 252 252 252 252 253 254 255 256 257 258 259 259 260 260 260 260 261 262 262 262 263 263 263 263 263 263 263 263 262 261 262 262 264 266 266 264 264 265 264 263 263 263 263 265 266 266 266 266 267 268 269 269 269 270 270 268 265
248 248 248 248 248 249 249 249 250 250 251 251 251 251 251 251 251 252 252 252 252 252 252 252 252 251 251 251 252 253 253 252 252 252 252 252 253 254 256 257 258 259 260 261 261 261 261 261 261 261 262 262 262 263 263 263 263 263 262 261 260 261 262 264 266 266 264 264 264 262 262 262 261 262 262 262 263 264 264 265 265 265 266 267 268 268 267 267
249 247 247 247 247 247 248 248 248 249 249 250 250 249 249 249 250 251 252 251 251 251 252 252 251 251 251 251 252 253 253 253 252 253 253 253 254 254 256 257 258 259 260 261 262 262 262 261 260 261 261 261 262 263 263 263 263 262 262 261 261 262 263 264 265 264 263 262 261 261 261 262 263 263 263 262 262 263 263 263 263 262 263 263 263 264 265 266
249 247 246 246 246 246 246 247 248 249 250 249 249 248 248 249 250 251 252 252 252 252 252 252 252 251 251 251 252 253 253 253 253 253 254 254 255 255 256 257 258 259 260 261 262 263 262 262 261 261 262 262 262 262 263 263 263 263 263 262 262 263 263 264 264 263 263 262 261 262 262 263 264 263 262 263 262 262 262 263 262 262 262 262 263 262 262 263
249 247 245 245 246 246 246 246 248 250 250 249 249 248 248 249 250 251 252 252 252 252 252 252 252 252 251 251 252 253 253 253 252 252 253 254 255 256 256 257 259 260 261 261 262 263 262 262 263 263 263 263 263 263 263 263 262 262 262 263 263 262 262 262 262 261 261 261 262 263 263 263 264 264 263 263 263 263 263 263 263 263 262 263 264 264 264 264
248 247 245 245 245 246 246 248 249 250 250 249 249 248 248 249 250 251 252 252 251 252 252 252 252 252 252 251 251 252 253 253 252 251 252 254 254 256 257 258 260 261 261 262 263 263 262 262 262 263 263 263 264 264 264 264 263 261 261 263 263 262 262 261 260 260 260 261 262 263 263 262 262 263 264 264 264 264 264 264 265 265 264 264 265 266 266 266
248 247 247 246 246 247 248 249 250 250 250 250 249 248 248 249 250 250 251 251 251 252 252 252 253 253 253 252 252 252 252 252 252 252 252 254 254 256 257 258 259 260 261 262 262 262 261 261 261 262 263 263 264 265 265 265 264 263 262 263 263 263 262 260 260 260 260 262 263 262 261 261 260 261 264 265 264 265 264 264 265 265 265 265 265 265 265 266
248 248 248 247 247 248 249 250 250 250 250 250 250 249 248 248 249 250 251 251 252 252 253 253 254 254 254 254 253 253 252 252 253 253 253 254 255 256 257 258 259 259 260 261 261 261 261 262 262 263 264 265 265 265 265 265 265 264 263 263 262 262 261 261 260 260 261 262 261 260 259 259 260 260 262 263 263 264 264 263 263 265 266 266 265 264 264 264
247 248 247 248 248 248 249 249 249 249 249 249 250 249 249 249 250 251 252 252 253 254 254 254 255 256 256 256 256 254 254 254 254 254 254 255 255 256 258 259 259 260 261 261 261 262 263 264 264 264 264 265 265 264 265 265 264 263 263 262 260 260 260 261 261 261 261 261 259 258 258 259 260 261 262 263 262 262 263 264 264 264 265 265 265 265 265 265
247 247 247 247 247 248 248 248 248 248 248 249 249 250 250 250 251 252 253 253 254 255 255 255 255 256 256 257 257 256 255 255 254 255 256 256 257 257 258 260 261 261 262 262 263 263 264 263 262 262 262 263 263 263 263 263 262 262 263 262 260 260 260 260 260 260 259 259 258 258 260 261 260 261 262 264 264 263 264 265 264 264 264 264 264 264 264 264
248 248 248 247 247 248 248 248 248 249 249 249 249 250 250 251 252 253 254 255 255 255 255 256 256 256 256 256 256 256 256 256 255 255 256 258 259 259 258 259 261 262 262 263 264 265 264 263 262 262 262 262 262 262 262 262 262 263 263 261 260 261 261 260 259 259 258 259 259 259 261 262 262 262 264 265 266 265 264 264 264 264 264 264 264 265 264 265
250 249 249 249 248 248 248 248 248 249 249 249 250 250 250 251 252 253 255 255 256 256 256 256 256 256 256 256 256 256 256 257 257 256 256 258 260 260 260 259 261 262 263 265 266 266 265 264 264 263 262 262 263 262 262 261 262 261 260 259 259 260 261 260 258 259 259 260 261 261 261 262 262 262 262 262 263 265 264 264 264 263 264 264 264 264 265 265
251 251 250 250 250 250 249 249 248 248 249 249 250 251 251 252 252 253 255 256 257 257 257 257 257 257 257 256 256 256 257 257 258 257 258 258 259 260 261 261 261 262 263 265 266 266 265 265 265 264 263 262 262 262 261 261 261 260 258 257 258 258 258 259 258 258 259 261 263 263 261 261 261 260 259 260 261 263 264 264 264 264 264 264 264 264 264 264
252 251 251 251 251 251 251 250 250 249 249 249 250 251 251 252 253 253 254 256 257 258 258 258 257 257 258 258 257 257 258 259 259 259 259 259 260 261 261 262 262 262 262 264 265 266 267 267 266 266 266 265 263 261 261 260 260 260 258 257 257 257 258 258 258 258 258 260 262 262 261 261 261 260 259 260 261 262 264 264 265 265 265 264 264 264 264 263
256 253 252 252 252 252 252 252 252 251 251 251 251 251 251 252 252 253 254 255 257 257 257 258 258 257 258 259 259 258 258 259 260 260 260 260 261 262 262 263 263 263 263 263 264 265 267 268 267 267 267 266 264 262 260 259 259 258 258 257 256 257 258 258 258 258 258 259 259 261 261 260 261 261 261 262 262 262 263 264 265 265 265 265 265 264 264 263
262 259 257 255 254 253 253 253 253 253 252 252 252 252 252 252 253 253 254 254 255 256 257 257 258 258 258 259 260 260 259 259 260 261 262 261 261 262 262 263 264 264 264 263 264 265 266 267 268 267 265 264 263 262 260 259 258 257 256 257 257 257 258 259 259 258 259 259 259 260 260 260 261 263 263 263 263 263 263 264 264 265 265 265 265 265 264 264
264 263 262 260 258 257 255 254 254 254 254 254 253 253 253 253 253 253 253 254 255 256 256 257 258 259 259 259 260 260 260 260 259 260 261 261 261 262 262 262 263 264 264 264 263 264 264 265 266 265 264 263 262 261 260 259 257 256 255 256 257 258 258 259 259 258 258 259 259 259 260 261 261 262 263 263 264 265 264 264 265 265 265 266 266 266 266 266
265 265 264 263 261 260 258 257 257 257 257 256 255 254 253 253 253 253 254 255 255 255 256 256 257 258 258 259 259 260 260 260 259 259 260 261 260 260 261 262 262 262 262 262 262 261 262 262 262 262 262 263 262 261 260 258 257 257 257 256 257 258 258 258 259 259 258 258 258 259 260 261 262 263 264 264 264 265 266 266 265 265 266 266 266 266 266 267
265 266 266 264 262 261 261 260 259 259 258 257 257 257 256 255 254 254 254 255 255 255 255 256 256 256 257 258 258 258 259 260 260 259 259 260 259 259 260 261 260 260 260 260 260 260 261 260 260 260 260 260 261 260 259 258 257 257 258 258 258 258 259 259 259 260 259 258 259 260 260 262 264 265 265 265 265 265 266 267 267 267 267 266 266 266 266 267
265 265 265 265 265 264 263 262 262 261 258 257 258 259 259 258 257 256 255 255 255 255 255 255 255 256 256 257 258 258 258 259 259 259 259 259 259 259 260 260 259 259 259 259 260 260 260 259 258 259 259 259 260 260 260 259 258 257 257 257 257 258 259 260 260 260 261 261 262 262 262 263 264 265 265 265 266 266 267 268 268 268 268 266 266 266 266 267
264 263 263 265 266 265 264 263 263 262 260 260 261 259 258 259 259 258 257 257 256 256 256 255 255 256 256 256 257 258 258 258 258 259 259 259 259 259 259 258 259 258 258 259 259 259 259 259 258 259 259 259 259 259 259 260 259 258 257 257 257 258 259 259 259 260 261 262 263 263 263 263 263 263 264 264 264 265 266 267 267 267 267 267 267 266 266 266
264 262 262 263 264 265 264 264 263 262 262 262 261 260 260 260 259 259 258 259 259 258 257 257 256 256 256 256 256 256 257 257 258 258 258 258 258 258 258 258 258 258 257 258 258 257 257 258 258 258 259 259 259 260 259 259 259 258 258 258 258 258 259 259 260 260 261 263 264 263 264 263 261 260 261 263 263 264 265 265 265 265 265 267 267 267 267 266
264 263 262 261 262 263 264 264 262 262 263 263 261 261 262 261 260 259 259 259 260 260 259 259 259 258 257 257 257 257 257 256 257 257 257 259 258 257 258 258 257 258 258 258 257 256 256 257 257 257 257 258 259 260 259 258 259 259 259 260 259 259 260 261 262 263 263 263 263 264 264 264 262 260 259 260 262 262 263 263 264 264 265 266 267 268 268 268
262 263 263 261 260 260 262 263 263 262 262 262 262 262 261 261 261 261 260 260 260 260 259 260 260 259 259 259 258 258 258 257 257 257 257 259 259 257 257 258 258 257 258 257 257 257 256 256 257 256 256 257 257 258 258 259 260 261 260 260 260 260 262 263 264 265 265 264 264 266 265 264 264 264 262 262 262 263 262 263 264 264 264 265 266 266 267 267
259 260 262 262 260 259 259 260 261 262 261 261 262 262 261 261 261 261 262 261 260 260 260 260 260 260 261 261 260 260 260 259 259 260 259 260 260 258 258 258 258 257 257 257 257 257 256 256 256 256 255 256 256 257 258 259 260 260 260 261 261 261 262 264 265 266 266 265 266 266 264 264 266 268 267 265 264 265 265 265 265 265 264 264 264 265 265 266
259 258 258 259 260 259 258 257 258 259 259 260 261 261 261 261 260 260 262 261 260 260 262 261 260 260 260 261 261 261 262 262 262 263 262 261 261 260 258 260 260 259 258 258 257 258 257 256 256 256 256 255 256 257 258 259 259 259 260 261 262 263 263 264 265 266 266 265 263 263 264 266 268 269 269 268 267 267 267 266 265 264 264 265 265 266 266 266
260 259 258 257 257 257 257 257 257 257 257 258 259 260 260 261 260 260 260 261 260 261 261 261 260 261 261 261 261 261 262 264 264 263 263 263 264 262 260 260 262 261 261 261 259 259 259 258 257 257 256 256 256 256 257 258 259 259 259 261 262 263 263 264 264 264 264 264 263 262 264 266 267 267 267 269 270 269 268 267 267 266 265 265 266 267 268 268
260 260 259 258 257 256 255 255 256 256 256 256 257 257 258 259 259 259 259 260 260 260 261 261 260 261 261 260 261 262 263 263 263 262 263 263 264 264 262 262 262 262 262 263 262 260 260 260 259 258 258 257 257 257 257 257 258 259 260 261 262 262 262 262 261 261 261 263 264 264 264 265 265 264 265 267 269 269 268 267 267 267 266 265 265 265 266 267
260 260 260 259 258 257 256 255 255 255 255 256 256 256 256 257 258 258 258 259 259 260 260 261 260 260 260 260 262 263 262 262 262 262 262 262 263 263 263 263 263 263 262 262 263 263 262 261 261 261 260 259 258 258 258 258 259 260 261 260 260 260 260 261 260 260 261 262 262 263 264 263 262 262 264 266 265 266 267 267 267 268 268 266 265 265 264 264
260 260 260 259 259 258 257 256 256 256 255 255 255 255 256 257 257 257 257 257 258 258 258 259 260 259 259 261 262 262 261 260 261 261 261 262 263 263 263 263 263 263 262 262 262 262 263 263 263 263 262 260 260 260 260 260 261 263 261 259 258 259 260 260 260 261 261 261 262 263 263 262 260 261 263 264 264 264 265 266 267 268 268 268 267 266 265 264
Height
10655 10657 10659 10661 10663 10665 10667 10669 10672 10673 10676 10678 10680 10682 10684 10686 10688 10690 10692 10694 10696 10697 10699 10701 10703 10705 10706 10708 10709 10711 10712 10714 10715 10715 10717 10718 10719 10720 10721 10721 10722 10722 10722 10723 10724 10724 10725 10725 10726 10726 10728 10729 10729 10730 10731 10730 10731 10731 10732 10733 10732 10733 10729 10733 10740 10738 10737 10727 10733 10751 10745 10738 10740 10743 10744 10741 10740 10742 10745 10745 10747 10750 10753 10760 10758 10749 10744 10742
10648 10650 10652 10654 10656 10658 10661 10663 10665 10667 10669 10671 10673 10675 10677 10679 10681 10683 10685 10686 10688 10690 10692 10693 10695 10697 10698 10700 10701 10703 10704 10706 10707 10708 10709 10710 10711 10712 10712 10712 10713 10713 10714 10715 10715 10715 10716 10716 10716 10717 10719 10719 10719 10720 10721 10721 10721 10721 10722 10723 10722 10720 10721 10728 10731 10728 10727 10722 10727 10737 10732 10729 10730 10735 10737 10733 10732 10733 10735 10736 10738 10740 10747 10753 10748 10741 10736 10734
10642 10644 10645 10647 10649 10652 10654 10656 10658 10660 10662 10664 10666 10668 10670 10672 10674 10676 10678 10679 10681 10683 10684 10685 10687 10689 10690 10692 10693 10695 10696 10698 10700 10701 10701 10703 10703 10703 10704 10704 10704 10705 10706 10707 10706 10707 10707 10707 10708 10708 10709 10710 10710 10711 10711 10712 10711 10712 10714 10713 10711 10712 10716 10720 10720 10718 10719 10717 10719 10723 10720 10719 10722 10727 10729 10726 10725 10725 10725 10727 10731 10734 10742 10745 10738 10732 10728 10726
10635 10637 10639 10640 10643 10645 10647 10649 10651 10653 10655 10657 10659 10662 10664 10666 10668 10669 10671 10672 10674 10675 10676 10678 10679 10681 10682 10684 10685 10687 10688 10690 10692 10693 10694 10695 10695 10696 10696 10696 10696 10697 10698 10698 10698 10699 10699 10699 10699 10699 10700 10701 10701 10701 10703 10704 10702 10703 10704 10702 10702 10707 10709 10709 10711 10711 10710 10709 10709 10711 10710 10710 10715 10718 10719 10719 10719 10717 10715 10719 10723 10729 10737 10738 10730 10722 10720 10719
10628 10630 10632 10634 10636 10638 10640 10642 10644 10646 10649 10651 10653 10655 10657 10659 10661 10662 10664 10665 10666 10667 10669 10670 10672 10673 10674 10676 10677 10679 10681 10683 10684 10685 10686 10687 10688 10688 10688 10688 10688 10689 10690 10690 10691 10691 10691 10691 10690 10691 10691 10692 10693 10693 10696 10694 10692 10695 10694 10693 10697 10700 10699 10700 10703 10701 10701 10700 10699 10702 10702 10702 10705 10707 10711 10712 10711 10710 10710 10711 10714 10725 10733 10731 10726 10718 10713 10711
10622 10624 10625 10627 10629 10631 10633 10636 10638 10640 10642 10644 10647 10649 10651 10652 10654 10655 10656 10657 10659 10660 10661 10663 10664 10665 10667 10668 10669 10671 10673 10675 10676 10677 10678 10679 10680 10680 10680 10680 10680 10681 10682 10682 10682 10682 10682 10682 10682 10683 10683 10684 10686 10685 10687 10684 10683 10686 10685 10687 10690 10690 10690 10691 10692 10691 10691 10691 10692 10694 10692 10693 10695 10697 10702 10701 10702 10706 10705 10702 10706 10720 10725 10720 10719 10713 10706 10701
10616 10617 10619 10620 10622 10624 10627 10629 10631 10634 10636 10638 10640 10642 10643 10645 10647 10648 10649 10650 10652 10653 10654 10655 10656 10658 10658 10660 10661 10663 10665 10667 10668 10669 10670 10671 10671 10672 10672 10672 10672 10673 10673 10674 10674 10673 10674 10674 10675 10676 10675 10677 10677 10676 10677 10675 10675 10678 10678 10680 10680 10680 10681 10682 10682 10682 10682 10682 10684 10684 10682 10684 10685 10688 10692 10688 10694 10700 10698 10698 10703 10714 10713 10705 10705 10704 10699 10692
10610 10611 10613 10614 10616 10618 10620 10622 10625 10627 10629 10631 10633 10635 10636 10638 10640 10641 10642 10643 10644 10645 10646 10648 10649 10649 10650 10652 10653 10655 10658 10659 10661 10662 10662 10662 10663 10663 10664 10664 10665 10665 10665 10665 10665 10666 10667 10668 10668 10668 10669 10670 10669 10668 10668 10667 10669 10671 10670 10671 10671 10672 10673 10673 10673 10672 10673 10674 10674 10673 10673 10676 10677 10679 10680 10679 10688 10692 10691 10695 10699 10705 10703 10697 10695 10694 10691 10686
10604 10606 10607 10609 10610 10612 10614 10616 10619 10621 10622 10624 10626 10628 10629 10631 10633 10634 10635 10636 10637 10638 10639 10640 10641 10641 10643 10644 10646 10648 10650 10651 10653 10654 10654 10654 10654 10655 10656 10657 10657 10657 10658 10658 10659 10660 10660 10661 10661 10661 10662 10662 10661 10661 10660 10660 10663 10662 10662 10663 10663 10664 10665 10664 10663 10663 10665 10666 10665 10665 10666 10668 10668 10669 10669 10673 10682 10682 10683 10688 10691 10695 10694 10691 10690 10686 10683 10681
10599 10601 10602 10603 10605 10607 10609 10611 10613 10614 10616 10617 10619 10621 10623 10624 10626 10628 10629 10629 10630 10631 10632 10633 10633 10634 10636 10637 10639 10641 10642 10644 10645 10646 10646 10646 10647 10648 10649 10649 10650 10650 10651 10652 10652 10653 10654 10654 10654 10654 10655 10655 10654 10654 10654 10655 10655 10654 10655 10655 10655 10656 10656 10655 10655 10656 10657 10657 10656 10656 10658 10659 10658 10658 10660 10666 10672 10671 10676 10682 10683 10685 10684 10684 10684 10679 10675 10673
10595 10596 10597 10598 10600 10602 10604 10606 10607 10608 10610 10611 10613 10615 10617 10618 10620 10621 10622 10623 10623 10624 10625 10626 10627 10628 10629 10631 10632 10634 10635 10637 10638 10639 10640 10639 10640 10641 10642 10642 10643 10644 10645 10645 10646 10647 10648 10648 10648 10648 10648 10648 10647 10648 10647 10648 10648 10647 10647 10647 10648 10649 10648 10647 10647 10648 10649 10648 10648 10648 10649 10649 10648 10651 10653 10657 10661 10663 10670 10675 10675 10676 10677 10678 10676 10671 10667 10664
10590 10591 10592 10594 10595 10597 10599 10600 10601 10603 10604 10606 10608 10609 10611 10612 10614 10615 10616 10616 10617 10618 10619 10620 10621 10622 10624 10625 10626 10627 10629 10631 10632 10633 10633 10633 10634 10635 10636 10636 10637 10638 10638 10639 10640 10641 10642 10642 10641 10641 10642 10641 10641 10642 10641 10641 10641 10641 10640 10640 10641 10641 10641 10641 10640 10641 10641 10641 10641 10640 10640 10640 10641 10644 10645 10648 10652 10657 10663 10666 10669 10672 10672 10672 10669 10663 10661 10659
10585 10586 10587 10589 10591 10593 10594 10595 10596 10597 10599 10601 10602 10604 10606 10607 10608 10609 10610 10610 10611 10613 10613 10614 10615 10617 10618 10619 10620 10622 10623 10625 10626 10627 10628 10628 10628 10629 10629 10630 10631 10632 10633 10634 10634 10635 10635 10635 10635 10635 10635 10635 10636 10636 10635 10635 10635 10635 10634 10634 10635 10634 10635 10636 10634 10634 10634 10635 10634 10632 10632 10631 10634 10637 10638 10641 10645 10649 10654 10657 10663 10668 10666 10666 10664 10659 10656 10655
10580 10582 10583 10584 10586 10588 10589 10590 10591 10592 10594 10595 10597 10599 10600 10601 10603 10604 10604 10605 10606 10607 10608 10609 10610 10611 10613 10614 10615 10616 10617 10619 10620 10621 10622 10622 10622 10622 10623 10624 10625 10626 10627 10628 10629 10629 10629 10629 10630 10630 10630 10630 10630 10630 10630 10630 10629 10630 10628 10629 10630 10628 10631 10631 10628 10629 10629 10630 10628 10625 10626 10624 10628 10633 10632 10635 10638 10641 10646 10649 10656 10660 10658 10659 10659 10655 10652 10652
10576 10577 10578 10579 10581 10583 10584 10585 10586 10588 10589 10590 10592 10594 10595 10596 10597 10599 10599 10600 10601 10602 10603 10604 10605 10606 10608 10608 10609 10610 10612 10613 10614 10615 10616 10616 10616 10616 10617 10618 10619 10620 10621 10622 10623 10623 10623 10624 10624 10624 10625 10625 10626 10626 10625 10625 10625 10625 10624 10625 10625 10623 10627 10627 10623 10625 10626 10627 10623 10620 10621 10617 10621 10630 10628 10630 10632 10633 10638 10641 10647 10651 10648 10649 10652 10650 10647 10645
10571 10572 10573 10575 10576 10578 10579 10580 10582 10583 10584 10586 10587 10589 10590 10591 10592 10593 10594 10595 10596 10597 10598 10598 10599 10601 10602 10602 10603 10605 10605 10607 10608 10609 10610 10610 10610 10611 10612 10612 10614 10615 10616 10617 10618 10618 10619 10619 10620 10620 10620 10620 10621 10621 10621 10621 10621 10620 10620 10621 10620 10618 10624 10623 10619 10622 10623 10622 10619 10617 10618 10612 10616 10626 10624 10624 10627 10627 10631 10634 10638 10642 10641 10641 10645 10646 10641 10636
10565 10567 10568 10570 10571 10573 10575 10576 10576 10578 10579 10581 10582 10583 10585 10586 10587 10588 10589 10590 10591 10591 10592 10593 10593 10596 10597 10596 10597 10598 10599 10600 10602 10603 10604 10604 10605 10606 10606 10607 10608 10609 10611 10612 10612 10613 10614 10615 10615 10615 10616 10616 10616 10616 10616 10617 10616 10616 10616 10617 10615 10614 10619 10619 10617 10619 10619 10618 10616 10615 10614 10608 10612 10621 10619 10619 10622 10621 10624 10627 10630 10634 10636 10637 10639 10641 10636 10632
10560 10562 10563 10565 10566 10568 10570 10571 10571 10573 10575 10576 10577 10578 10579 10581 10581 10582 10584 10585 10585 10586 10586 10587 10588 10590 10590 10591 10592 10592 10593 10595 10596 10598 10598 10599 10600 10601 10601 10602 10603 10604 10605 10607 10608 10609 10610 10611 10611 10611 10611 10612 10612 10612 10612 10612 10612 10612 10613 10613 10612 10611 10613 10615 10615 10616 10614 10614 10614 10613 10610 10606 10609 10614 10614 10615 10616 10616 10617 10620 10623 10625 10629 10633 10634 10635 10631 10628
10555 10556 10558 10559 10561 10563 10564 10566 10566 10568 10570 10571 10572 10573 10574 10575 10576 10577 10578 10579 10580 10580 10581 10581 10583 10584 10584 10585 10587 10587 10588 10589 10591 10592 10593 10594 10595 10595 10596 10597 10598 10599 10600 10602 10603 10604 10605 10606 10606 10607 10608 10608 10607 10607 10608 10608 10608 10608 10609 10609 10608 10608 10608 10609 10612 10612 10610 10610 10611 10610 10608 10605 10606 10607 10609 10611 10611 10611 10612 10613 10616 10619 10622 10626 10629 10630 10628 10626
10550 10551 10552 10554 10556 10557 10559 10560 10561 10563 10564 10565 10566 10567 10569 10569 10570 10571 10572 10574 10574 10575 10576 10577 10577 10578 10579 10581 10582 10582 10583 10584 10586 10587 10588 10589 10590 10590 10591 10592 10593 10594 10596 10597 10599 10600 10600 10601 10602 10603 10603 10603 10602 10603 10603 10603 10604 10604 10605 10605 10604 10605 10602 10604 10608 10607 10606 10607 10607 10608 10605 10603 10603 10603 10605 10606 10606 10606 10607 10607 10609 10612 10614 10617 10621 10624 10627 10626
10544 10546 10547 10549 10550 10552 10554 10555 10556 10557 10559 10560 10561 10562 10563 10564 10565 10566 10567 10568 10569 10570 10571 10572 10573 10574 10575 10576 10576 10577 10578 10580 10581 10582 10583 10584 10585 10586 10586 10587 10588 10589 10591 10592 10593 10595 10595 10596 10598 10599 10598 10598 10598 10599 10599 10599 10600 10600 10600 10601 10601 10600 10598 10599 10602 10603 10603 10603 10602 10604 10603 10600 10601 10600 10600 10601 10602 10602 10603 10603 10604 10606 10607 10609 10612 10616 10622 10623
10540 10541 10542 10543 10545 10547 10548 10550 10551 10552 10554 10555 10556 10557 10558 10559 10560 10561 10562 10563 10564 10565 10567 10567 10568 10569 10570 10571 10571 10572 10573 10575 10576 10577 10578 10579 10580 10581 10581 10582 10583 10584 10585 10586 10588 10589 10589 10592 10595 10593 10592 10593 10594 10594 10594 10594 10595 10595 10596 10597 10596 10595 10594 10594 10596 10599 10600 10598 10598 10601 10599 10597 10597 10597 10596 10596 10597 10598 10598 10599 10599 10600 10601 10602 10604 10607 10612 10616
10535 10535 10537 10538 10540 10541 10543 10545 10546 10547 10548 10550 10551 10552 10553 10554 10555 10556 10557 10558 10559 10560 10562 10562 10564 10565 10566 10567 10566 10567 10569 10570 10571 10572 10573 10574 10576 10576 10577 10578 10578 10579 10579 10580 10583 10583 10585 10589 10589 10587 10587 10589 10588 10589 10589 10590 10590 10591 10591 10592 10591 10590 10590 10589 10591 10595 10594 10593 10595 10596 10594 10594 10593 10592 10593 10593 10592 10593 10594 10595 10595 10595 10595 10595 10597 10599 10602 10605
10530 10531 10532 10533 10535 10536 10538 10540 10541 10542 10543 10545 10546 10547 10548 10549 10550 10551 10552 10554 10554 10555 10556 10558 10559 10561 10562 10562 10562 10562 10563 10565 10566 10568 10568 10570 10571 10572 10573 10574 10573 10573 10574 10575 10577 10577 10581 10584 10582 10581 10583 10583 10582 10583 10584 10585 10586 10586 10585 10586 10585 10586 10586 10585 10587 10590 10588 10588 10590 10590 10589 10588 10588 10588 10588 10588 10587 10587 10589 10590 10591 10591 10590 10590 10591 10592 10594 10597
10526 10527 10528 10529 10530 10532 10533 10535 10537 10538 10539 10540 10541 10542 10544 10545 10546 10546 10547 10548 10549 10551 10552 10553 10555 10556 10557 10558 10558 10558 10558 10560 10562 10563 10564 10565 10566 10567 10568 10568 10568 10569 10570 10570 10570 10572 10576 10577 10576 10577 10577 10577 10577 10578 10579 10580 10581 10581 10580 10580 10580 10581 10582 10581 10583 10584 10582 10583 10583 10583 10585 10583 10583 10584 10582 10582 10583 10583 10583 10584 10585 10586 10585 10585 10586 10587 10588 10590
10521 10522 10524 10525 10526 10527 10529 10531 10532 10533 10534 10535 10536 10537 10539 10541 10541 10542 10543 10543 10545 10547 10547 10548 10550 10551 10552 10554 10553 10553 10554 10555 10557 10558 10559 10560 10561 10563 10563 10563 10563 10565 10566 10565 10565 10567 10571 10571 10570 10571 10571 10571 10573 10573 10574 10574 10575 10576 10574 10574 10576 10577 10577 10577 10577 10578 10576 10577 10577 10578 10580 10579 10579 10578 10576 10576 10578 10577 10578 10579 10579 10580 10580 10580 10581 10582 10583 10585
10517 10518 10519 10520 10522 10523 10525 10526 10527 10529 10530 10531 10531 10533 10535 10536 10537 10537 10538 10538 10540 10542 10542 10544 10545 10546 10548 10549 10549 10549 10549 10550 10552 10554 10554 10555 10557 10558 10558 10559 10559 10560 10561 10559 10560 10563 10565 10565 10565 10566 10566 10566 10567 10569 10570 10569 10571 10572 10569 10569 10572 10572 10572 10572 10572 10572 10571 10571 10573 10573 10574 10575 10574 10571 10569 10571 10572 10571 10573 10573 10574 10575 10575 10576 10576 10576 10577 10580
10513 10513 10515 10516 10517 10519 10520 10522 10523 10524 10525 10526 10527 10528 10530 10531 10532 10532 10532 10533 10535 10536 10537 10538 10540 10541 10543 10544 10544 10544 10545 10546 10547 10549 10550 10551 10553 10553 10554 10555 10555 10555 10555 10554 10555 10557 10559 10560 10560 10561 10561 10561 10562 10563 10564 10564 10566 10567 10565 10565 10566 10566 10567 10567 10566 10567 10566 10566 10569 10569 10568 10570 10569 10564 10563 10566 10566 10565 10567 10567 10567 10568 10570 10571 10571 10571 10570 10573
10508 10509 10510 10512 10513 10514 10516 10517 10518 10519 10520 10521 10522 10523 10525 10526 10527 10527 10526 10528 10530 10530 10531 10534 10535 10537 10538 10538 10540 10540 10540 10541 10543 10545 10546 10547 10548 10548 10549 10550 10550 10550 10550 10549 10549 10550 10552 10554 10556 10556 10556 10556 10558 10558 10559 10560 10560 10561 10561 10561 10561 10561 10561 10562 10562 10561 10561 10563 10565 10564 10563 10564 10564 10560 10558 10560 10560 10559 10560 10562 10562 10562 10563 10565 10566 10565 10565 10566
10503 10504 10506 10507 10508 10509 10511 10512 10513 10514 10515 10516 10517 10518 10519 10521 10521 10520 10521 10524 10524 10524 10526 10529 10530 10531 10532 10534 10535 10534 10535 10537 10538 10540 10541 10542 10543 10543 10544 10544 10544 10544 10544 10543 10542 10543 10547 10550 10551 10552 10551 10552 10553 10554 10553 10554 10555 10555 10556 10557 10556 10555 10555 10556 10557 10556 10556 10559 10560 10558 10557 10558 10559 10556 10553 10554 10555 10553 10554 10557 10557 10557 10558 10559 10559 10559 10559 10559
10498 10499 10501 10502 10503 10504 10506 10507 10507 10508 10510 10510 10511 10512 10514 10515 10515 10515 10516 10518 10518 10518 10521 10523 10525 10527 10528 10529 10529 10529 10530 10532 10533 10534 10536 10537 10537 10537 10538 10538 10538 10539 10538 10537 10536 10539 10543 10545 10546 10547 10546 10547 10548 10548 10548 10549 10549 10549 10551 10552 10550 10548 10550 10551 10552 10551 10552 10553 10553 10552 10551 10554 10554 10551 10547 10547 10549 10549 10549 10551 10552 10553 10553 10554 10554 10553 10554 10554
10492 10494 10495 10497 10498 10499 10501 10501 10502 10503 10504 10505 10506 10507 10508 10508 10510 10510 10510 10512 10513 10513 10515 10518 10520 10522 10523 10524 10522 10522 10525 10526 10527 10529 10529 10530 10530 10530 10532 10532 10532 10533 10532 10531 10532 10536 10538 10538 10540 10541 10541 10542 10542 10543 10543 10543 10542 10543 10546 10546 10543 10542 10544 10547 10546 10546 10547 10546 10546 10547 10547 10550 10549 10545 10542 10542 10542 10544 10546 10546 10546 10548 10548 10549 10549 10549 10549 10548
10486 10488 10489 10491 10492 10493 10495 10496 10497 10498 10498 10499 10500 10501 10502 10503 10504 10504 10504 10505 10506 10507 10509 10512 10514 10516 10517 10518 10515 10516 10520 10519 10520 10523 10523 10523 10523 10523 10525 10526 10525 10526 10526 10525 10527 10530 10531 10530 10532 10534 10535 10536 10537 10538 10538 10536 10535 10539 10540 10538 10536 10535 10537 10542 10541 10539 10539 10538 10539 10543 10544 10544 10543 10539 10539 10537 10535 10536 10539 10540 10541 10542 10543 10543 10543 10543 10543 10542
10480 10481 10483 10484 10486 10487 10489 10490 10491 10492 10492 10494 10494 10495 10496 10497 10498 10499 10498 10498 10499 10500 10504 10507 10508 10510 10511 10510 10508 10510 10513 10512 10513 10517 10517 10518 10516 10514 10517 10520 10520 10521 10521 10520 10521 10524 10523 10523 10525 10527 10529 10530 10531 10532 10532 10530 10530 10534 10534 10531 10530 10528 10529 10534 10535 10532 10532 10532 10533 10538 10539 10538 10537 10535 10533 10531 10529 10529 10530 10532 10534 10535 10537 10538 10538 10537 10537 10537
10474 10475 10476 10478 10479 10480 10481 10483 10484 10485 10486 10487 10488 10489 10491 10491 10492 10493 10492 10492 10492 10494 10498 10500 10502 10503 10502 10501 10501 10504 10507 10506 10507 10510 10511 10511 10510 10508 10510 10513 10514 10515 10516 10514 10514 10515 10514 10515 10517 10519 10522 10524 10524 10525 10525 10524 10525 10526 10527 10526 10523 10521 10521 10525 10527 10526 10526 10526 10528 10531 10532 10531 10529 10527 10525 10524 10523 10523 10523 10525 10527 10529 10531 10531 10532 10532 10532 10532
10468 10468 10469 10471 10472 10473 10474 10475 10476 10478 10479 10480 10481 10483 10484 10485 10485 10486 10486 10485 10486 10488 10491 10492 10494 10495 10493 10492 10494 10498 10500 10499 10500 10503 10504 10503 10502 10502 10503 10505 10507 10509 10510 10508 10508 10508 10506 10507 10510 10511 10513 10516 10517 10518 10518 10518 10518 10518 10519 10519 10516 10513 10514 10518 10521 10520 10520 10521 10522 10522 10523 10524 10520 10517 10518 10518 10517 10517 10517 10518 10520 10522 10524 10525 10525 10525 10526 10526
10462 10463 10463 10464 10465 10465 10467 10468 10469 10470 10471 10473 10475 10476 10477 10477 10477 10478 10480 10479 10479 10481 10483 10484 10486 10487 10487 10485 10486 10490 10493 10492 10493 10495 10495 10495 10496 10496 10496 10497 10500 10501 10503 10502 10501 10501 10500 10499 10501 10504 10506 10506 10507 10510 10511 10511 10512 10512 10511 10511 10509 10507 10508 10511 10514 10514 10514 10516 10517 10515 10515 10517 10511 10508 10511 10513 10511 10511 10511 10511 10513 10515 10516 10517 10517 10518 10518 10518
10457 10457 10458 10458 10458 10459 10460 10461 10461 10462 10463 10465 10467 10467 10469 10469 10470 10471 10472 10472 10472 10474 10476 10477 10477 10478 10480 10480 10478 10481 10485 10485 10486 10488 10487 10486 10488 10489 10489 10491 10492 10493 10495 10495 10494 10495 10494 10492 10493 10496 10498 10498 10499 10502 10503 10504 10504 10504 10504 10503 10501 10501 10502 10504 10506 10508 10508 10509 10511 10508 10507 10509 10505 10502 10506 10506 10503 10504 10505 10504 10506 10508 10509 10510 10509 10509 10510 10511
10452 10452 10453 10453 10452 10453 10454 10454 10454 10455 10456 10458 10458 10459 10461 10461 10461 10462 10463 10464 10466 10467 10468 10469 10470 10470 10471 10472 10471 10473 10475 10476 10478 10481 10478 10477 10480 10480 10481 10484 10486 10486 10486 10486 10487 10488 10487 10487 10488 10488 10489 10491 10492 10494 10497 10497 10496 10496 10497 10496 10495 10495 10497 10498 10499 10500 10502 10502 10502 10501 10501 10502 10499 10496 10499 10498 10496 10496 10497 10497 10499 10500 10501 10502 10501 10501 10502 10502
10446 10447 10449 10447 10447 10448 10448 10448 10449 10449 10450 10451 10450 10450 10452 10453 10452 10454 10456 10457 10458 10459 10460 10462 10464 10463 10462 10464 10465 10465 10466 10466 10470 10473 10470 10469 10472 10472 10473 10477 10478 10478 10478 10477 10478 10481 10480 10481 10481 10481 10482 10483 10483 10487 10489 10488 10488 10489 10489 10490 10489 10488 10489 10491 10492 10492 10495 10496 10493 10494 10496 10494 10491 10492 10491 10490 10490 10490 10488 10490 10491 10492 10494 10494 10493 10494 10494 10494
10441 10442 10443 10440 10440 10442 10442 10443 10444 10444 10444 10443 10442 10442 10444 10445 10445 10446 10448 10449 10449 10450 10452 10454 10455 10455 10455 10457 10457 10457 10458 10459 10460 10463 10463 10461 10462 10464 10467 10469 10469 10470 10471 10469 10470 10474 10474 10474 10474 10474 10476 10477 10475 10479 10481 10480 10481 10482 10483 10483 10482 10481 10482 10484 10485 10484 10486 10488 10486 10488 10490 10487 10485 10486 10483 10480 10483 10483 10481 10482 10484 10485 10486 10486 10485 10486 10486 10486
10435 10437 10437 10434 10434 10437 10437 10437 10438 10438 10437 10436 10436 10437 10438 10437 10438 10440 10440 10440 10441 10442 10443 10445 10446 10447 10448 10449 10448 10449 10451 10452 10452 10453 10455 10452 10452 10458 10461 10460 10460 10462 10463 10460 10463 10467 10466 10465 10467 10467 10469 10470 10469 10472 10473 10471 10473 10475 10476 10476 10474 10475 10476 10477 10478 10477 10477 10480 10480 10481 10482 10481 10480 10477 10473 10473 10475 10474 10474 10475 10477 10478 10477 10476 10478 10478 10478 10479
10429 10431 10430 10429 10429 10430 10430 10432 10432 10431 10430 10431 10431 10431 10431 10431 10432 10433 10432 10432 10433 10434 10435 10436 10437 10439 10440 10441 10441 10441 10442 10444 10445 10445 10445 10443 10446 10452 10453 10451 10452 10454 10454 10453 10456 10460 10457 10456 10459 10460 10461 10462 10462 10464 10466 10463 10463 10466 10468 10468 10467 10469 10469 10468 10470 10469 10470 10473 10472 10472 10474 10474 10473 10469 10465 10467 10467 10466 10467 10468 10469 10470 10468 10468 10470 10471 10471 10472
10422 10423 10424 10423 10423 10424 10424 10426 10426 10424 10424 10425 10425 10425 10426 10426 10426 10426 10426 10426 10426 10427 10428 10427 10429 10431 10431 10432 10434 10433 10434 10436 10437 10437 10437 10434 10439 10445 10443 10443 10444 10444 10446 10447 10447 10451 10450 10447 10451 10454 10454 10454 10454 10456 10458 10454 10452 10456 10460 10459 10460 10462 10460 10460 10462 10461 10464 10467 10463 10463 10468 10465 10464 10464 10460 10460 10460 10460 10460 10460 10461 10461 10461 10462 10463 10463 10463 10465
10414 10415 10417 10417 10417 10417 10418 10419 10419 10418 10419 10419 10418 10420 10421 10420 10420 10420 10420 10421 10421 10421 10421 10421 10423 10423 10422 10424 10426 10425 10426 10428 10428 10429 10429 10427 10431 10437 10435 10434 10435 10436 10440 10440 10437 10441 10442 10440 10443 10446 10445 10447 10447 10447 10447 10445 10444 10448 10451 10451 10453 10453 10451 10452 10454 10454 10458 10460 10454 10456 10461 10455 10451 10454 10455 10453 10453 10453 10454 10453 10453 10453 10455 10455 10456 10456 10456 10456
10408 10408 10409 10409 10410 10411 10412 10412 10411 10411 10413 10412 10411 10415 10415 10413 10414 10414 10414 10415 10416 10415 10415 10415 10416 10416 10415 10417 10419 10417 10418 10421 10420 10421 10423 10420 10422 10429 10428 10425 10426 10429 10431 10430 10428 10432 10434 10432 10435 10437 10438 10439 10439 10438 10437 10436 10437 10441 10443 10443 10444 10445 10443 10443 10445 10446 10448 10448 10448 10451 10450 10444 10441 10444 10447 10447 10445 10445 10447 10447 10445 10446 10448 10449 10449 10448 10448 10448
10402 10402 10402 10401 10403 10404 10405 10405 10404 10404 10406 10405 10405 10408 10408 10407 10409 10408 10407 10410 10410 10408 10408 10410 10410 10410 10409 10410 10411 10411 10411 10413 10413 10414 10416 10414 10414 10420 10421 10416 10417 10422 10421 10420 10421 10423 10424 10425 10427 10427 10429 10430 10430 10430 10430 10428 10430 10433 10434 10434 10435 10436 10437 10436 10437 10439 10437 10437 10443 10442 10437 10436 10436 10435 10436 10437 10436 10438 10439 10439 10439 10439 10440 10442 10441 10441 10442 10442
10395 10395 10395 10394 10395 10396 10397 10397 10396 10398 10399 10398 10399 10401 10400 10401 10403 10403 10401 10403 10404 10402 10403 10404 10404 10403 10404 10403 10404 10406 10405 10406 10408 10407 10408 10407 10407 10411 10413 10408 10410 10413 10412 10412 10415 10414 10414 10417 10418 10418 10420 10422 10422 10422 10422 10420 10421 10424 10426 10427 10426 10427 10429 10429 10430 10431 10427 10428 10434 10433 10428 10431 10433 10429 10424 10424 10427 10431 10431 10429 10430 10431 10432 10434 10434 10433 10434 10435
10386 10387 10387 10387 10388 10389 10389 10388 10388 10390 10391 10391 10393 10394 10393 10394 10396 10397 10395 10395 10397 10397 10397 10398 10398 10397 10398 10398 10397 10399 10399 10400 10401 10401 10401 10401 10400 10403 10405 10402 10402 10405 10404 10405 10407 10407 10406 10408 10410 10410 10411 10414 10415 10414 10414 10412 10412 10415 10419 10420 10419 10420 10421 10422 10423 10422 10417 10418 10424 10424 10423 10427 10427 10422 10417 10415 10417 10421 10421 10420 10421 10421 10424 10427 10427 10426 10426 10426
10377 10378 10379 10379 10380 10381 10381 10381 10381 10381 10383 10384 10385 10386 10386 10386 10388 10389 10389 10388 10390 10391 10390 10390 10392 10392 10391 10391 10392 10394 10394 10393 10394 10394 10394 10394 10393 10394 10396 10396 10396 10398 10399 10398 10398 10399 10399 10399 10401 10401 10402 10407 10407 10405 10404 10403 10403 10408 10413 10414 10412 10412 10412 10413 10414 10412 10410 10411 10414 10414 10418 10423 10420 10413 10411 10411 10412 10411 10411 10412 10411 10411 10414 10418 10419 10419 10419 10419
10368 10369 10370 10371 10372 10373 10373 10374 10373 10373 10375 10376 10377 10378 10378 10379 10380 10381 10382 10382 10382 10384 10383 10383 10385 10386 10383 10384 10388 10389 10387 10386 10387 10387 10387 10386 10386 10387 10388 10389 10389 10390 10391 10391 10390 10391 10391 10392 10393 10393 10395 10399 10398 10395 10395 10395 10397 10404 10407 10407 10404 10402 10403 10403 10403 10404 10404 10404 10405 10405 10411 10415 10410 10405 10406 10407 10406 10405 10403 10402 10402 10403 10404 10407 10409 10410 10410 10411
10360 10361 10361 10362 10364 10364 10365 10366 10365 10365 10368 10369 10368 10369 10370 10371 10373 10373 10374 10375 10376 10377 10376 10375 10377 10377 10375 10378 10383 10381 10378 10379 10380 10380 10380 10380 10380 10380 10381 10382 10382 10382 10383 10383 10384 10384 10383 10384 10386 10384 10386 10391 10389 10385 10386 10389 10394 10398 10398 10396 10394 10394 10395 10394 10394 10395 10395 10395 10397 10399 10403 10403 10399 10400 10402 10399 10398 10398 10395 10393 10394 10394 10394 10396 10399 10399 10399 10402